User: anonymous   Login
Location: Unspecified
(0.0000°N, 0.0000°E)
Time: 02:58:31
(UTC+00:00)
Language:

USA 81 - Orbit

View from above orbital plane
View from above orbital plane
View from above satellite
View from above satellite

Ground track
Ground track

The orbit data is extracted from the following two-line orbital elements,

1 21949U 92023A   17227.89458736 0.00000030  00000-0  11334-4 0    02
2 21949  85.0097 134.1321 0001500  33.5367 326.4632 14.31387708    02
Epoch (UTC): 15 August 2017 21:28:12
Eccentricity: 0.0001500
inclination: 85.0097°
perigee height: 786 km
apogee height: 788 km
right ascension of ascending node: 134.1321°
argument of perigee: 33.5367°
revolutions per day: 14.31387708
mean anomaly at epoch: 326.4632°
orbit number at epoch: 0

The dashed part of the orbit path shows where the satellite is in the earth's shadow,  

DLR